User: anonymous   Login
Location: Unspecified
(0.0000°N, 0.0000°E)
Time: 06:13:55
(UTC+00:00)
Language:

BEIDOU M1 - Orbit

View from above orbital plane
View from above orbital plane
View from above satellite
View from above satellite

Ground track
Ground track

The orbit data is extracted from the following two-line orbital elements,

1 31115U 07011A   18202.96354674 -.00000088 +00000-0 +00000-0 0  9994
2 31115 052.9380 314.7187 0001591 238.1716 121.8245 01.77348490024940
Epoch (UTC): 21 July 2018 23:07:30
Eccentricity: 0.0001591
inclination: 52.9380°
perigee height: 22447 km
apogee height: 22456 km
right ascension of ascending node: 314.7187°
argument of perigee: 238.1716°
revolutions per day: 1.77348490
mean anomaly at epoch: 121.8245°
orbit number at epoch: 2494

The dashed part of the orbit path shows where the satellite is in the earth's shadow,  

DLR